Precipitable_Water
1.88 1.96 2.03 2.04 1.99 1.94 1.98 1.90 1.85 1.74 1.63 1.59 1.57 1.56 1.57 1.61 1.61 1.58 1.56 1.60 1.62 1.50 1.55 1.62 1.67 1.73 1.81 1.83 1.86 1.88 1.94 1.76 1.73 1.70 1.63 1.52 1.59 1.51 1.64 1.76 1.77 1.74 1.65
1.90 1.89 1.87 1.77 1.78 1.72 1.84 1.68 1.65 1.63 1.64 1.66 1.71 1.65 1.63 1.67 1.54 1.48 1.56 1.68 1.70 1.79 1.72 1.65 1.71 1.73 1.74 1.87 1.90 1.98 2.02 1.83 1.70 1.71 1.57 1.70 1.46 1.61 1.65 1.70 1.65 1.36 1.30
1.77 1.79 1.73 1.71 1.71 1.69 1.79 1.71 1.68 1.71 1.70 1.80 1.81 1.71 1.69 1.74 1.73 1.70 1.77 1.66 1.67 1.76 1.72 1.70 1.77 1.82 1.79 1.87 1.99 2.00 1.94 1.74 1.74 1.70 1.76 1.66 1.31 1.33 1.50 1.46 1.20 1.20 1.34
1.75 1.79 1.79 1.72 1.76 1.73 1.75 1.62 1.56 1.63 1.67 1.80 1.91 1.90 1.91 1.91 1.84 1.86 1.89 1.92 1.82 1.80 1.79 1.83 1.88 1.85 1.86 2.01 1.99 1.91 1.81 1.80 1.69 1.71 1.59 1.66 1.68 1.69 1.26 1.23 1.37 1.46 1.44
1.76 1.84 1.86 1.72 1.69 1.75 1.80 1.54 1.60 1.74 1.76 1.84 1.81 1.75 1.69 1.67 1.72 1.78 1.74 1.78 1.86 1.81 1.77 1.85 1.87 1.92 2.04 2.03 1.92 1.81 1.85 1.73 1.50 1.67 1.69 1.61 1.67 1.65 1.38 1.57 1.69 1.56 1.56
1.71 1.82 1.80 1.78 1.63 1.72 1.64 1.61 1.70 1.83 1.81 1.87 1.64 1.60 1.73 1.83 1.79 1.76 1.76 1.71 1.86 1.79 1.83 1.86 1.94 2.02 2.06 2.03 1.83 1.83 1.76 1.70 1.63 1.61 1.50 1.75 1.76 1.50 1.38 1.72 1.72 1.48 1.65
1.68 1.76 1.81 1.84 1.83 1.65 1.70 1.76 1.79 1.79 1.82 1.79 1.65 1.70 1.88 1.88 1.84 1.76 1.79 1.61 1.72 1.88 1.81 1.80 1.97 2.12 2.07 2.01 1.83 1.77 1.76 1.69 1.63 1.78 1.83 1.81 1.80 1.51 1.44 1.45 1.43 1.64 1.61
1.62 1.71 1.76 1.74 1.67 1.66 1.61 1.77 1.72 1.74 1.71 1.65 1.69 1.77 1.86 1.80 1.66 1.64 1.52 1.48 1.61 1.67 1.77 1.84 2.01 2.05 2.05 1.99 1.78 1.73 1.71 1.72 1.65 1.78 1.81 1.81 1.72 1.57 1.52 1.38 1.40 1.58 1.60
1.66 1.70 1.73 1.74 1.69 1.72 1.76 1.79 1.71 1.62 1.56 1.62 1.67 1.82 1.83 1.69 1.63 1.57 1.45 1.56 1.66 1.84 1.87 1.94 2.03 2.00 1.93 1.78 1.72 1.66 1.62 1.67 1.71 1.82 1.84 1.67 1.68 1.66 1.62 1.63 1.35 1.57 1.60
1.58 1.65 1.61 1.57 1.66 1.80 1.82 1.72 1.65 1.48 1.51 1.57 1.72 1.88 1.91 1.63 1.51 1.54 1.53 1.66 1.75 1.99 1.96 1.93 1.93 1.89 1.79 1.74 1.62 1.57 1.62 1.72 1.68 1.70 1.57 1.53 1.61 1.49 1.46 1.44 1.58 1.58 1.40
1.51 1.51 1.44 1.70 1.85 1.93 1.89 1.70 1.50 1.63 1.56 1.46 1.70 1.83 1.95 1.76 1.68 1.59 1.58 1.63 1.77 1.90 1.95 1.95 1.83 1.78 1.70 1.60 1.52 1.57 1.68 1.58 1.53 1.51 1.61 1.70 1.68 1.61 1.60 1.47 1.42 1.37 1.38
1.34 1.40 1.49 1.69 1.71 1.78 1.86 1.64 1.48 1.53 1.56 1.57 1.63 1.74 1.80 1.83 1.82 1.64 1.66 1.69 1.74 1.81 1.86 1.82 1.72 1.80 1.90 1.74 1.56 1.57 1.52 1.49 1.48 1.53 1.55 1.57 1.46 1.60 1.51 1.55 1.42 1.43 1.42
1.33 1.33 1.50 1.61 1.67 1.75 1.67 1.49 1.51 1.52 1.58 1.58 1.60 1.68 1.75 1.78 1.73 1.75 1.78 1.75 1.71 1.83 1.84 1.80 1.79 1.74 1.69 1.65 1.56 1.45 1.40 1.41 1.41 1.40 1.37 1.43 1.41 1.41 1.38 1.40 1.33 1.34 1.36
1.24 1.27 1.46 1.59 1.63 1.73 1.57 1.43 1.62 1.63 1.63 1.56 1.64 1.68 1.61 1.58 1.63 1.77 1.72 1.75 1.69 1.72 1.72 1.73 1.74 1.73 1.68 1.69 1.59 1.48 1.40 1.41 1.40 1.39 1.25 1.42 1.46 1.33 1.38 1.46 1.29 1.26 1.29
1.14 1.25 1.41 1.53 1.60 1.70 1.49 1.49 1.61 1.66 1.68 1.64 1.72 1.77 1.71 1.67 1.62 1.71 1.72 1.75 1.71 1.68 1.65 1.69 1.71 1.71 1.68 1.66 1.62 1.59 1.51 1.53 1.51 1.45 1.40 1.30 1.34 1.31 1.33 1.33 1.32 1.35 1.40
1.11 1.23 1.39 1.46 1.59 1.63 1.52 1.47 1.65 1.74 1.67 1.70 1.73 1.81 1.83 1.75 1.65 1.60 1.62 1.63 1.66 1.71 1.76 1.75 1.73 1.68 1.62 1.62 1.61 1.60 1.58 1.62 1.61 1.59 1.57 1.50 1.39 1.39 1.42 1.38 1.38 1.42 1.52
1.13 1.26 1.33 1.42 1.56 1.50 1.49 1.46 1.69 1.81 1.73 1.72 1.79 1.92 1.96 1.93 1.87 1.76 1.65 1.56 1.59 1.70 1.71 1.76 1.77 1.70 1.57 1.60 1.61 1.62 1.59 1.60 1.58 1.56 1.55 1.57 1.60 1.48 1.40 1.38 1.42 1.43 1.44
1.32 1.22 1.30 1.41 1.48 1.45 1.45 1.49 1.76 1.83 1.82 1.90 1.87 1.90 1.88 1.94 1.93 1.84 1.68 1.57 1.59 1.63 1.62 1.67 1.72 1.58 1.53 1.54 1.56 1.55 1.52 1.51 1.49 1.51 1.50 1.54 1.51 1.50 1.44 1.41 1.41 1.38 1.37
1.38 1.25 1.21 1.36 1.42 1.45 1.48 1.46 1.72 1.81 1.87 1.95 1.94 1.93 1.91 1.89 1.92 1.84 1.71 1.56 1.61 1.61 1.59 1.59 1.61 1.62 1.47 1.46 1.46 1.51 1.53 1.47 1.46 1.45 1.43 1.44 1.36 1.38 1.45 1.43 1.38 1.39 1.38
1.41 1.33 1.28 1.32 1.43 1.45 1.50 1.58 1.69 1.78 1.85 1.93 1.97 2.00 1.94 1.90 1.97 1.82 1.69 1.59 1.52 1.41 1.49 1.59 1.60 1.60 1.57 1.47 1.43 1.40 1.42 1.38 1.36 1.35 1.36 1.36 1.37 1.47 1.51 1.50 1.54 1.48 1.34
1.37 1.26 1.23 1.24 1.40 1.43 1.44 1.48 1.51 1.60 1.75 1.83 1.94 1.96 1.90 1.91 1.82 1.75 1.73 1.58 1.55 1.37 1.43 1.54 1.56 1.52 1.45 1.45 1.35 1.27 1.24 1.28 1.24 1.26 1.33 1.34 1.39 1.52 1.52 1.52 1.55 1.54 1.52
1.24 1.10 1.16 1.24 1.39 1.47 1.47 1.54 1.59 1.61 1.74 1.85 1.87 1.93 1.94 1.92 1.84 1.73 1.67 1.56 1.53 1.36 1.37 1.36 1.49 1.40 1.38 1.39 1.23 1.19 1.00 1.11 1.22 1.25 1.28 1.30 1.38 1.47 1.45 1.46 1.47 1.51 1.57
1.22 1.16 1.22 1.36 1.44 1.50 1.50 1.60 1.68 1.66 1.79 1.77 1.82 1.78 1.87 1.94 1.86 1.80 1.64 1.51 1.48 1.44 1.32 1.34 1.39 1.40 1.25 1.21 1.26 1.18 1.05 0.99 1.17 1.20 1.23 1.27 1.33 1.38 1.39 1.40 1.43 1.49 1.52
1.25 1.28 1.38 1.53 1.53 1.51 1.61 1.58 1.52 1.44 1.50 1.65 1.79 1.84 1.80 1.89 1.82 1.75 1.66 1.59 1.56 1.48 1.42 1.39 1.37 1.41 1.30 1.10 1.19 1.29 1.35 1.30 1.14 1.05 1.17 1.25 1.30 1.32 1.31 1.36 1.39 1.42 1.49
1.33 1.32 1.43 1.61 1.67 1.64 1.69 1.56 1.56 1.52 1.57 1.68 1.83 1.88 1.75 1.81 1.83 1.70 1.65 1.62 1.56 1.52 1.39 1.44 1.41 1.31 1.22 1.15 1.20 1.25 1.29 1.37 1.35 1.28 1.04 1.10 1.22 1.30 1.33 1.37 1.43 1.45 1.54
1.40 1.33 1.43 1.53 1.65 1.69 1.71 1.63 1.49 1.50 1.55 1.59 1.70 1.81 1.75 1.79 1.77 1.71 1.68 1.67 1.59 1.59 1.47 1.39 1.46 1.42 1.38 1.27 1.29 1.32 1.32 1.38 1.29 1.27 1.19 1.19 1.23 1.29 1.39 1.45 1.47 1.52 1.58
Wind_Speed
17 17 17 17 16 16 15 14 13 12 10 9 7 6 5 5 4 4 5 5 5 6 6 6 7 7 8 9 9 11 12 13 13 14 14 14 15 15 15 15 15 15 15
18 18 18 17 17 16 15 13 12 11 9 8 7 6 5 5 4 4 5 5 6 6 7 7 7 7 8 8 9 11 12 13 14 14 15 15 14 15 15 15 15 14 14
19 18 18 17 16 15 14 12 11 10 9 8 8 8 7 7 6 6 6 6 7 7 7 8 8 8 8 9 10 12 13 13 14 14 13 14 15 14 14 14 14 14 14
19 18 17 16 15 14 13 12 11 10 10 10 9 8 8 7 6 6 7 7 8 8 9 9 9 9 9 10 12 12 13 13 13 12 13 14 14 14 14 14 13 13 13
18 17 16 16 14 13 12 11 11 11 10 10 10 10 9 9 8 8 8 9 10 10 10 9 9 9 11 13 13 13 13 13 13 13 13 13 13 13 12 12 12 12 12
18 17 16 15 13 12 11 11 11 10 11 11 11 11 12 12 12 12 12 12 12 11 11 11 12 12 16 15 14 13 13 12 12 12 13 13 13 12 12 12 12 12 12
17 16 15 14 13 12 11 10 10 10 11 11 12 12 13 14 13 13 13 13 13 13 12 13 13 15 15 14 13 13 12 12 12 12 12 12 12 12 12 12 12 12 12
17 16 14 14 13 11 10 10 10 10 11 11 13 14 14 15 15 14 14 14 14 14 14 14 15 15 14 13 13 12 12 11 12 12 12 12 12 13 13 13 12 12 12
16 15 14 13 12 11 10 10 10 10 11 12 13 14 14 15 16 16 16 16 16 16 15 15 15 14 13 13 12 12 12 12 12 12 12 12 13 13 13 13 13 12 12
16 14 14 12 11 11 10 10 11 11 11 12 13 13 14 15 16 16 17 17 17 17 16 16 15 14 14 13 13 13 13 13 13 13 13 14 14 13 13 13 13 13 13
15 14 13 12 11 10 10 11 11 11 12 12 12 12 12 13 14 15 16 16 16 16 16 15 15 14 14 13 13 12 12 12 13 13 13 13 13 13 13 14 14 15 15
15 14 13 12 11 11 10 10 10 11 11 11 12 12 12 12 13 14 14 15 15 15 14 14 14 13 12 12 11 11 12 12 13 13 13 13 13 14 14 14 14 15 15
15 14 13 12 11 11 10 10 10 10 11 11 12 12 12 12 12 13 12 12 13 12 12 12 11 12 12 12 12 12 12 12 13 13 13 13 13 12 12 12 12 13 13
15 14 13 12 12 11 10 10 10 10 10 11 12 12 12 12 11 11 11 12 11 11 11 10 11 12 11 12 12 12 12 12 12 12 12 12 11 12 11 11 11 12 12
15 14 13 12 12 11 11 10 10 10 10 11 11 11 11 11 11 11 11 11 10 10 10 10 10 11 12 12 12 12 12 12 12 11 11 11 10 10 10 10 11 11 12
15 14 13 13 12 12 11 11 10 10 10 10 10 9 10 10 10 10 9 9 10 10 10 10 10 10 11 12 12 11 11 11 11 10 10 10 9 9 10 10 11 12 12
15 14 14 13 13 12 11 11 10 9 9 9 9 8 8 8 8 8 8 8 9 9 9 9 9 9 10 11 11 10 10 10 10 9 8 8 8 9 10 11 12 12 12
15 15 14 14 14 13 12 11 10 9 9 8 8 7 7 6 6 7 8 8 9 9 9 8 9 9 10 10 9 10 10 10 9 8 8 8 8 9 10 12 12 12 12
16 16 15 14 14 14 13 12 10 10 9 8 7 7 6 6 6 7 7 8 8 8 8 8 8 9 9 9 9 9 8 8 8 7 7 8 9 10 12 12 12 12 12
16 16 16 16 15 15 13 12 11 10 9 8 6 6 6 6 6 6 8 8 8 8 8 8 9 9 8 8 8 7 7 7 7 7 8 9 10 11 12 12 12 12 12
16 17 18 17 16 16 14 13 12 11 10 8 7 6 6 6 6 6 7 8 7 8 8 8 9 9 8 7 6 6 6 6 6 7 8 10 11 11 12 11 11 11 11
16 18 19 18 17 16 15 14 12 11 10 8 7 7 6 6 6 6 6 7 7 7 8 8 8 8 8 7 6 6 7 7 8 8 9 10 11 12 12 11 11 10 10
18 19 19 18 18 17 15 14 12 12 10 9 8 7 6 6 5 6 7 7 8 7 8 8 8 7 7 7 6 6 6 7 8 9 10 12 12 12 11 11 10 10 9
20 20 20 19 18 18 17 15 14 13 11 10 9 8 7 6 6 6 7 7 7 7 8 8 7 7 7 8 7 6 7 7 8 10 11 12 12 11 11 10 9 9 8
21 21 21 20 19 18 17 15 15 14 13 11 10 9 8 7 6 6 7 7 6 7 8 8 8 7 8 7 6 7 7 8 9 9 12 12 12 11 10 9 8 7 7
22 22 22 22 21 19 18 16 16 15 14 13 12 10 9 8 7 7 7 7 7 7 8 8 9 8 8 7 6 7 7 8 9 10 11 11 11 10 9 8 7 6 5
Wind_Direction
131 127 127 124 121 120 116 114 112 109 105 101 99 98 98 101 103 104 108 104 106 105 103 100 101 102 95 88 86 87 88 85 85 85 86 86 88 91 92 93 92 91 88
132 129 127 124 121 119 115 111 108 104 100 95 91 88 91 97 99 108 116 114 111 108 106 104 104 104 103 96 94 97 94 87 89 89 88 87 88 92 92 92 92 91 88
132 129 127 125 121 118 114 109 104 99 94 88 87 82 86 90 93 104 112 115 117 111 110 109 105 106 106 104 103 101 94 92 91 91 91 88 89 92 93 93 92 90 88
134 131 129 128 124 119 113 105 101 95 91 85 84 79 79 84 91 103 111 116 117 116 111 108 107 106 107 109 110 101 96 94 90 91 92 91 91 91 91 93 92 89 89
134 132 130 129 125 119 110 103 100 93 89 84 81 78 78 81 88 99 111 116 115 116 111 107 106 108 108 110 107 100 98 94 90 91 92 92 91 91 91 92 90 89 89
136 132 132 129 126 119 111 105 99 92 87 84 82 81 82 83 88 93 103 112 112 111 109 104 98 104 112 102 101 101 98 94 91 92 92 91 91 89 91 89 91 89 86
137 134 132 130 126 121 113 107 101 94 88 85 86 87 86 85 87 92 100 107 110 109 107 103 101 107 112 102 99 99 98 93 95 92 92 91 91 89 90 91 89 87 85
139 136 133 131 127 121 115 109 103 97 90 89 90 92 89 86 86 90 99 105 108 107 106 104 105 106 104 100 98 97 98 96 93 93 92 93 93 92 91 90 88 86 84
142 139 137 134 130 123 117 112 107 99 94 95 97 94 92 89 87 90 98 104 107 105 104 104 103 102 100 99 99 96 97 98 95 93 92 97 95 92 91 89 84 83 82
146 142 140 138 134 126 120 115 109 101 100 100 101 98 96 92 90 92 97 103 106 104 101 101 100 99 97 97 99 98 97 93 93 93 91 96 95 93 89 87 85 83 82
150 147 145 141 137 130 122 119 112 104 104 103 103 103 99 95 93 96 99 103 105 105 102 99 97 99 97 96 97 100 97 95 94 94 95 96 95 92 91 88 86 84 84
154 152 148 144 140 134 127 123 116 112 106 106 104 105 103 100 97 100 103 106 107 106 102 99 96 97 97 96 96 99 100 98 96 96 97 96 94 93 91 90 88 86 85
157 154 152 149 145 139 131 127 121 116 112 109 108 106 105 105 104 103 105 111 112 110 105 102 95 95 95 95 97 101 101 99 99 99 98 98 96 95 92 90 88 86 84
160 159 156 153 150 143 138 132 127 121 118 114 111 109 105 105 108 105 105 112 116 114 107 99 99 96 96 97 100 102 100 100 101 101 100 98 98 94 93 92 89 87 85
164 164 161 158 155 150 144 139 132 127 124 121 117 113 108 107 107 108 107 111 116 119 112 107 103 101 98 99 101 102 101 101 101 102 101 101 97 95 93 92 89 89 87
170 169 166 165 161 157 151 146 140 134 131 128 125 120 113 110 109 111 109 113 117 120 117 113 106 105 102 103 102 102 103 103 102 102 102 101 98 96 95 94 95 93 91
174 173 173 171 167 164 157 153 149 141 139 133 132 128 124 118 116 114 112 113 122 128 124 123 114 109 110 109 105 102 104 105 102 102 101 100 103 97 99 101 100 97 92
179 179 177 176 174 169 165 162 158 153 149 140 137 139 129 124 128 125 122 117 116 125 130 129 127 117 115 114 110 105 103 104 104 101 98 102 104 106 108 103 102 97 92
185 183 182 181 178 174 171 168 164 160 158 150 145 143 138 129 129 131 135 127 124 124 127 134 134 128 120 117 113 109 105 103 101 103 104 106 108 112 112 109 103 98 92
189 188 187 184 181 179 175 173 170 165 166 160 154 148 149 138 133 134 139 136 131 129 127 128 134 134 126 124 116 110 108 105 102 103 109 114 115 116 115 111 106 101 92
193 192 190 188 184 182 182 180 177 174 170 168 163 155 146 148 139 139 147 147 142 136 132 133 135 136 134 132 129 119 116 113 112 113 116 121 123 123 119 115 109 101 95
193 190 189 189 188 185 185 185 185 184 182 177 174 168 159 148 150 147 154 154 156 148 144 141 141 140 134 134 124 120 119 116 112 116 123 128 128 126 122 117 111 103 96
192 189 188 188 188 189 188 190 192 189 187 183 179 173 172 163 157 160 156 156 162 160 157 152 148 145 142 144 128 122 130 116 125 123 128 131 131 128 124 119 113 105 96
195 192 190 190 190 191 192 193 194 194 194 191 185 181 174 172 164 167 167 166 168 171 166 169 165 156 150 145 142 126 123 123 129 131 133 135 136 133 128 123 116 108 96
197 196 195 194 194 194 196 199 199 201 199 195 192 185 183 178 171 166 172 170 168 168 170 169 169 165 159 152 149 142 133 131 128 140 139 142 139 135 132 128 120 110 96
201 200 199 200 201 201 201 203 205 205 204 202 200 195 193 188 182 179 173 172 173 174 177 177 176 174 170 169 164 155 147 145 135 142 144 147 144 143 138 134 125 113 96